GW2109 Weather Reports


time (UTC)temp
F
wind
direction
speed
knots
gust
knots
rain 1hr
in
rain 24hr
in
rain mn
in
humidity
%
barometer
mb
20260508073446 48 293 1.7 7.0 0.00 0.00 0.00 68 1002.5
20260508072935 48 293 3.5 7.0 0.00 0.00 0.00 68 1002.6
20260508072425 48 293 3.5 7.0 0.00 0.00 0.00 69 1002.7
20260508071916 48 270 3.5 7.0 0.00 0.00 0.00 69 1002.6
20260508071406 48 293 1.7 7.0 0.00 0.00 0.00 69 1002.5
20260508070856 49 270 1.7 7.0 0.00 0.00 0.00 70 1002.5
20260508070345 49 293 1.7 11.3 0.00 0.00 0.00 70 1002.5
20260508065325 49 293 1.7 7.0 0.00 0.00 0.00 72 1002.5
20260508064814 49 270 1.7 7.0 0.00 0.00 0.00 74 1002.6
20260508064305 49 293 2.6 9.6 0.00 0.00 0.00 75 1002.4
20260508063757 49 270 1.7 9.6 0.00 0.00 0.00 77 1002.5
20260508063245 49 293 2.6 7.8 0.00 0.00 0.00 78 1002.4
20260508062734 49 293 4.3 7.0 0.00 0.00 0.00 78 1002.4
20260508061204 49 293 3.5 7.8 0.00 0.00 0.00 78 1002.9
20260508060653 49 293 5.2 7.8 0.00 0.00 0.00 77 1002.8
20260508060144 49 293 1.7 7.0 0.00 0.00 0.00 76 1002.9
20260508055634 49 293 2.6 7.0 0.00 0.00 0.00 75 1003.1
20260508055124 49 293 1.7 7.0 0.00 0.00 0.00 75 1003.2
20260508054614 49 293 1.7 7.0 0.00 0.00 0.00 75 1003.3
20260508054103 49 293 1.7 7.0 0.00 0.00 0.00 75 1003.4
20260508053553 50 293 3.5 7.0 0.00 0.00 0.00 74 1003.3
20260508053046 50 293 1.7 7.0 0.00 0.00 0.00 74 1003.4
20260508052532 50 293 3.5 7.0 0.00 0.00 0.00 73 1003.5
20260508052023 50 293 1.7 5.2 0.00 0.00 0.00 73 1003.4
20260508051523 50 270 2.6 5.2 0.00 0.00 0.00 72 1003.6
20260508051002 50 270 1.7 7.0 0.00 0.00 0.00 71 1003.4
20260508050453 51 293 1.7 9.6 0.00 0.00 0.00 70 1003.5
20260508045943 51 270 3.5 9.6 0.00 0.00 0.00 67 1003.4
20260508045432 52 293 1.7 9.6 0.00 0.00 0.00 63 1003.5
20260508044412 51 248 3.5 9.6 0.00 0.00 0.00 64 1002.9
20260508043905 51 293 3.5 9.6 0.00 0.00 0.00 66 1002.8
20260508043352 51 293 3.5 11.3 0.00 0.00 0.00 68 1002.8
20260508042841 51 293 1.7 11.3 0.00 0.00 0.00 69 1002.7
20260508042331 51 248 3.5 9.6 0.00 0.00 0.00 69 1003.0
20260508041822 51 270 3.5 9.6 0.00 0.00 0.00 71 1002.8
20260508041313 51 248 2.6 9.6 0.00 0.00 0.00 72 1003.0
20260508040254 51 270 2.6 11.3 0.00 0.00 0.00 73 1003.1
20260508035741 51 248 2.6 11.3 0.00 0.00 0.00 73 1003.0
20260508033701 51 270 2.6 9.6 0.00 0.00 0.00 74 1003.0
20260508032641 51 293 2.6 9.6 0.00 0.00 0.00 75 1003.1
20260508032131 51 270 4.3 9.6 0.00 0.00 0.00 75 1003.2
20260508031621 51 248 2.6 9.6 0.00 0.00 0.00 75 1003.2
20260508030050 51 270 4.3 12.2 0.00 0.00 0.00 76 1003.0
20260508025539 51 293 3.5 9.6 0.00 0.00 1.05 77 1002.8
20260508025029 50 293 3.5 11.3 0.00 0.00 1.05 78 1002.8
20260508024010 50 293 6.1 13.9 0.00 0.00 1.05 78 1002.9
20260508023459 50 293 3.5 13.0 0.00 0.00 1.05 79 1002.8
20260508022949 50 270 4.3 13.0 0.00 0.00 1.05 80 1002.6
20260508022440 50 270 3.5 11.3 0.00 0.00 1.05 81 1002.7
20260508021929 50 270 1.7 9.6 0.00 0.00 1.05 81 1002.6
20260508020357 50 270 3.5 0.0 0.00 0.00 1.05 83 1002.3
20260508020156 50 270 3.5 0.0 0.00 0.00 1.05 83 1002.3
20260508015747 50 270 3.5 9.6 0.00 1.05 1.05 84 1002.4
20260508015234 50 270 3.5 9.6 0.00 1.05 1.05 84 1002.4
20260508014725 50 225 3.5 11.3 0.00 1.05 1.05 85 1002.5
20260508013704 51 293 3.5 13.9 0.00 1.05 1.05 84 1002.3
20260508013154 51 270 5.2 13.9 0.00 1.05 1.05 83 1002.2
20260508012135 51 293 4.3 12.2 0.00 1.05 1.05 85 1002.2
20260508011113 51 270 5.2 11.3 0.00 1.05 1.05 85 1002.2
20260508010604 51 270 4.3 9.6 0.00 1.05 1.05 85 1002.5
20260508010056 51 293 4.3 9.6 0.00 1.05 1.05 86 1002.4
20260508005542 51 248 5.2 7.8 0.00 1.05 1.05 86 1002.3
20260508005033 52 248 3.5 9.6 0.00 1.05 1.05 85 1002.3
20260508004524 52 270 3.5 9.6 0.00 1.05 1.05 85 1002.7
20260508004020 52 293 3.5 9.6 0.00 1.05 1.05 86 1002.5
20260508003505 52 270 3.5 9.6 0.00 1.05 1.05 84 1002.6
20260508002952 52 248 3.5 9.6 0.00 1.05 1.05 83 1002.7
20260508002443 52 203 5.2 9.6 0.00 1.05 1.05 82 1002.5
20260508001933 52 248 4.3 13.9 0.00 1.05 1.05 84 1002.8
20260508000911 53 248 3.5 7.8 0.00 1.05 1.05 86 1003.2
20260508000404 53 293 0.9 7.8 0.00 1.05 1.05 83 1003.0
20260507235342 54 293 3.5 7.0 0.00 1.05 1.05 81 1003.3
20260507233811 54 293 3.5 9.6 0.00 1.05 1.05 80 1003.2
20260507233302 54 270 1.7 9.6 0.00 1.05 1.05 80 1003.2
20260507232751 54 270 1.7 9.6 0.00 1.05 1.05 80 1003.1
20260507231731 54 225 1.7 6.1 0.00 1.05 1.05 80 1003.4
20260507231220 54 293 1.7 5.2 0.00 1.05 1.05 81 1003.3
20260507230201 54 270 1.7 5.2 0.00 1.05 1.05 81 1003.2
20260507225651 54 293 1.7 6.1 0.00 1.05 1.05 81 1003.3
20260507225141 54 270 1.7 7.8 0.00 1.05 1.05 81 1003.1
20260507224631 54 270 3.5 7.8 0.00 1.05 1.05 81 1003.2
20260507224120 54 270 1.7 7.8 0.00 1.05 1.05 82 1003.2
20260507223611 54 248 1.7 7.8 0.00 1.05 1.05 82 1003.2
20260507223100 54 293 2.6 7.8 0.00 1.05 1.05 83 1003.1
20260507222550 54 293 3.5 9.6 0.00 1.05 1.05 82 1002.8
20260507222042 54 293 1.7 9.6 0.00 1.05 1.05 82 1002.9
20260507221530 54 293 1.7 7.0 0.00 1.05 1.05 81 1002.8
20260507220510 55 248 2.6 7.8 0.00 1.05 1.05 79 1002.6
20260507215959 55 293 1.7 9.6 0.00 1.05 1.05 80 1002.5
20260507215449 55 293 2.6 9.6 0.00 1.05 1.05 80 1002.3
20260507214939 55 270 3.5 9.6 0.00 1.05 1.05 80 1001.7
20260507214429 54 270 2.6 7.8 0.00 1.05 1.05 81 1001.9
20260507213920 54 270 1.7 11.3 0.00 1.05 1.05 83 1001.9
20260507213409 55 270 4.3 11.3 0.00 1.05 1.05 82 1001.9
20260507212859 55 293 3.5 9.6 0.00 1.05 1.05 80 1001.9
20260507212349 55 270 2.6 9.6 0.00 1.05 1.05 80 1001.9
20260507211839 56 293 1.7 9.6 0.00 1.05 1.05 79 1001.8
20260507211328 56 270 1.7 9.6 0.00 1.05 1.05 79 1001.9
20260507210819 56 270 1.7 7.8 0.00 1.05 1.05 79 1002.0
20260507210309 56 270 3.5 7.8 0.00 1.05 1.05 78 1002.1
20260507205758 56 270 3.5 7.8 0.00 1.05 1.05 78 1002.2
20260507205249 56 293 3.5 7.8 0.00 1.05 1.05 78 1002.1
20260507204738 56 270 1.7 7.8 0.00 1.05 1.05 77 1002.1
20260507204227 56 248 3.5 7.8 0.00 1.05 1.05 77 1002.1
20260507203719 56 270 2.6 7.0 0.00 1.05 1.05 76 1002.0
20260507203207 56 270 3.5 7.8 0.00 1.05 1.05 76 1001.8
20260507202658 57 270 3.5 7.8 0.00 1.05 1.05 76 1001.8
20260507202147 57 293 1.7 7.0 0.00 1.05 1.05 76 1001.8
20260507201128 57 293 1.7 7.8 0.00 1.05 1.05 75 1001.9
20260507200617 57 270 1.7 9.6 0.00 1.05 1.05 76 1001.5
20260507200110 57 270 1.7 13.0 0.00 1.05 1.05 75 1001.3
20260507195557 57 270 3.5 13.0 0.00 1.05 1.05 74 1001.2
20260507195046 57 270 1.7 9.6 0.00 1.05 1.05 75 1001.1
20260507194537 57 270 3.5 9.6 0.00 1.05 1.05 74 1001.0
20260507194026 57 270 3.5 7.8 0.00 1.05 1.05 74 1000.5
20260507193011 57 270 3.5 7.8 0.00 1.05 1.05 73 1000.5
20260507192455 57 270 3.5 7.0 0.00 1.05 1.05 73 1000.3
20260507191438 58 293 6.1 9.6 0.00 1.05 1.05 71 999.8
20260507190926 58 293 3.5 11.3 0.00 1.05 1.05 72 999.8
20260507185905 58 293 3.5 7.8 0.00 1.05 1.05 72 1000.3
20260507184334 58 270 1.7 7.0 0.00 1.05 1.05 70 1000.9
20260507183824 58 293 3.5 13.9 0.00 1.05 1.05 70 1001.6
20260507182805 58 293 2.6 7.0 0.00 1.05 1.05 69 1002.2
20260507181742 58 225 3.5 7.0 0.00 1.05 1.05 69 1002.5
20260507181231 58 293 2.6 7.0 0.00 1.05 1.05 70 1002.4
20260507180724 58 293 2.6 7.0 0.00 1.05 1.05 69 1002.2
20260507180214 58 270 2.6 6.1 0.00 1.05 1.05 70 1002.1
20260507175153 58 270 2.6 5.2 0.00 1.05 1.05 70 1002.8
20260507174134 58 293 1.7 6.1 0.00 1.05 1.05 70 1003.7
20260507173624 58 293 0.0 6.1 0.00 1.05 1.05 71 1003.7
20260507173114 58 293 3.5 6.1 0.00 1.05 1.05 71 1003.6
20260507172603 58 293 1.7 3.5 0.00 1.05 1.05 72 1003.5
20260507171543 57 270 1.7 6.1 0.00 1.05 1.05 72 1003.2
20260507171034 57 270 1.7 7.8 0.00 1.05 1.05 71 1003.4
20260507170522 57 293 3.5 9.6 0.00 1.05 1.05 71 1002.9
20260507170013 57 293 3.5 9.6 0.00 1.05 1.05 71 1002.2
20260507164953 57 270 1.7 7.0 0.00 1.05 1.05 74 1001.4
20260507164442 57 293 2.6 7.0 0.00 1.05 1.05 76 1001.1
20260507163935 57 270 1.7 7.0 0.00 1.05 1.05 76 1000.9
20260507163422 57 270 2.6 7.0 0.00 1.05 1.05 74 1000.7
20260507162402 57 270 2.6 7.8 0.00 1.05 1.05 75 1001.2
20260507161851 57 293 3.5 7.8 0.00 1.05 1.05 74 1001.3
20260507161342 57 270 2.6 9.6 0.00 1.05 1.05 74 1001.4
20260507160832 57 270 3.5 9.6 0.00 1.05 1.05 75 1002.1
20260507160322 57 293 2.6 6.1 0.00 1.05 1.05 75 1002.3
20260507155811 57 270 1.7 7.0 0.00 1.05 1.05 75 1002.7
20260507155301 57 293 1.7 9.6 0.00 1.05 1.05 75 1002.8